Flag for Philippines Weather past 2 weeks in Isabela City, Philippines

Now
81 °F

Passing clouds.


Feels Like: 87 °F
Forecast: 78 / 88 °F
Wind: 2 mph from West

Location: Zamboanga

Current Time: Jul 25, 2014 at 4:13:28 AM

Latest Report: Jul 25, 2014 at 2:00 AM


Visibility: N/A

Pressure: 29.89 "Hg

Humidity: 89%

Dew point: 77 °F

Location of Isabela CityLocation

Historic Weather in Isabela City — Graph

°F

Isabela City temperature yesterday

Maximum temperature yesterday: 91 °F (at 11:00 AM)
Minimum temperature yesterday: 77 °F (at 2:00 AM)
Average temperature yesterday: 86 °F

Past Weeks' High & Low Weather Summary

 TemperatureHumidityPressure
High95 °F (Jul 18, 2:00 PM)94% (Jul 10, 5:00 AM)29.95 "Hg (Jul 10, 5:00 AM)
Low75 °F (Jul 10, 5:00 AM)60% (Jul 18, 2:00 PM)29.71 "Hg (Jul 17, 3:00 PM)
Average85 °F80%29.85 "Hg
* Reported Jul 10 2:00 AM — Jul 25 2:00 AM, Isabela City, Weather by CustomWeather, © 2014

Note: Actual official high and low records may vary slightly from our data, if they occured in-between our weather recording intervals... More about our weather records

Advertising

Isabela City weather history for previous 24 hours

 ConditionsComfort  
Time TempWeatherWind HumidityBarometerVisibility
2:00 AM
Jul 25
81 °FPassing clouds.2 mph89%29.89 "HgN/A
11:00 PM
Jul 24
81 °FPassing clouds.No wind89%29.92 "HgN/A
8:00 PM84 °FOvercast.5 mph79%29.89 "HgN/A
6:00 PM86 °FPartly sunny.5 mph79%29.86 "HgN/A
5:00 PM86 °FPartly sunny.5 mph79%29.83 "HgN/A
4:00 PM90 °FPartly sunny.5 mph71%29.83 "HgN/A
3:00 PM90 °FScattered clouds.7 mph71%29.83 "HgN/A
2:00 PM91 °FPartly sunny.5 mph67%29.86 "HgN/A
1:00 PM90 °FPartly sunny.9 mph67%29.86 "HgN/A
12:00 PM90 °FScattered clouds.9 mph71%29.89 "HgN/A
11:00 AM91 °FScattered clouds.12 mph67%29.89 "HgN/A
10:00 AM90 °FPartly sunny.5 mph63%29.92 "HgN/A
9:00 AM88 °FPartly sunny.5 mph70%29.89 "HgN/A
8:00 AM86 °FPartly sunny.2 mph70%29.89 "HgN/A
7:00 AM82 °FPartly sunny.5 mph74%29.86 "HgN/A
6:00 AM79 °FScattered clouds.No wind84%29.89 "HgN/A
5:00 AM77 °FPassing clouds.No wind89%29.89 "HgN/A
Weather by CustomWeather, © 2014

See weather overviewHow to use our weather pages